1534424400.03,34764,21.44,74426.0,11.17,5.33,4.97,0,*46
1534424401.22,34765,21.5,74426.5,11.17,5.41,4.89,0,*4D
1534424402.46,34766,21.5,74428.5,11.15,5.11,4.63,0,*4D
1534424403.65,34767,21.5,74424.0,11.13,5.07,4.57,0,*4A
1534424404.83,34768,21.5,74426.3,11.13,5.29,4.85,0,*46
1534424406.04,34769,21.5,74428.5,11.11,5.37,4.85,0,*4A
1534424407.29,34770,21.5,74428.3,11.07,5.23,4.79,0,*43
1534424408.53,34771,21.5,74426.5,11.07,5.37,5.01,0,*49
1534424409.75,34772,21.5,74424.5,11.11,5.63,5.15,0,*49
1534424410.98,34773,21.5,74430.3,11.11,5.77,5.29,0,*42
1534424412.2,34774,21.5,74424.5,11.07,5.95,5.59,0,*49
1534424413.42,34775,21.5,74424.8,11.05,5.93,5.49,0,*4D
1534424414.67,34776,21.5,74428.3,11.07,5.85,5.23,0,*47
1534424415.89,34777,21.5,74428.5,11.05,5.49,5.01,0,*44
1534424417.13,34778,21.5,74430.0,11.03,5.55,5.11,0,*41
1534424418.35,34779,21.5,74428.0,11.03,5.59,5.23,0,*4D
1534424419.56,34780,21.5,74428.0,11.03,5.71,5.29,0,*4B
1534424420.77,34781,21.5,74426.3,11.05,5.77,5.45,0,*40
1534424421.96,34782,21.5,74430.3,11.05,5.67,5.37,0,*47
1534424423.18,34783,21.5,74428.5,11.03,5.59,5.11,0,*49
1534424424.41,34784,21.5,74428.5,11.03,5.77,5.45,0,*43
1534424425.63,34785,21.44,74422.5,11.03,5.67,5.23,0,*43
1534424426.85,34786,21.5,74428.3,11.03,5.71,5.37,0,*42
1534424428.04,34787,21.5,74426.8,11.01,5.27,4.81,0,*4E
1534424429.23,34788,21.5,74430.0,11.01,5.67,5.45,0,*4C
1534424430.45,34789,21.5,74428.3,10.99,6.11,5.73,0,*4A
1534424431.69,34790,21.5,74426.8,11.01,5.89,5.55,0,*44
1534424432.91,34791,21.5,74426.0,11.01,6.25,5.89,0,*41
1534424434.14,34792,21.5,74428.8,11.01,6.13,5.85,0,*4B
1534424435.38,34793,21.5,74430.0,11.01,5.85,5.51,0,*4F
1534424436.59,34794,21.5,74428.5,11.01,5.89,5.63,0,*45
1534424437.8,34795,21.5,74428.0,11.01,6.11,5.73,0,*47
1534424439.0,34796,21.5,74430.5,11.01,5.99,5.67,0,*42
1534424440.22,34797,21.5,74428.5,11.01,5.77,5.51,0,*46
1534424441.45,34798,21.5,74426.5,11.01,5.77,5.51,0,*49
1534424442.65,34799,21.5,74428.5,11.01,5.63,5.19,0,*41
1534424443.87,34800,21.5,74430.0,10.99,5.85,5.45,0,*4F
1534424445.09,34801,21.5,74426.8,10.99,5.33,4.97,0,*4D
1534424446.28,34802,21.5,74428.0,11.01,5.63,5.15,0,*40
1534424447.49,34803,21.44,74426.8,10.99,5.99,5.67,0,*41
1534424448.69,34804,21.5,74428.5,10.99,5.99,5.63,0,*42
1534424449.91,34805,21.5,74430.8,11.01,5.95,5.55,0,*4A
1534424451.16,34806,21.5,74426.8,10.99,5.89,5.55,0,*44
1534424452.35,34807,21.5,74424.5,11.01,5.95,5.67,0,*49
1534424453.57,34808,21.5,74426.8,10.99,5.77,5.33,0,*4B
1534424454.78,34809,21.5,74428.3,11.01,5.73,5.41,0,*4B
1534424455.98,34810,21.5,74428.3,10.99,5.63,5.19,0,*4F
1534424457.21,34811,21.5,74426.5,10.99,5.51,5.07,0,*40
1534424458.38,34812,21.5,74428.3,10.97,5.71,5.37,0,*4C
1534424459.56,34813,21.5,74430.5,10.97,5.95,5.71,0,*45
1534424460.79,34814,21.5,74426.8,10.97,6.17,5.81,0,*44
1534424462.04,34815,21.5,74424.3,10.99,6.13,5.77,0,*46
1534424463.28,34816,21.5,74428.0,10.99,6.13,5.77,0,*45
1534424464.5,34817,21.5,74428.5,10.99,5.77,5.41,0,*40
1534424465.71,34818,21.5,74428.5,11.01,5.73,5.41,0,*4B
1534424466.92,34819,21.5,74430.3,11.01,5.89,5.63,0,*4F
1534424468.17,34820,21.5,74424.5,10.99,5.89,5.73,0,*44
1534424469.38,34821,21.5,74424.8,11.01,5.73,5.45,0,*45
1534424470.58,34822,21.5,74428.5,11.01,5.95,5.77,0,*4F
1534424471.8,34823,21.5,74430.3,11.01,6.21,5.89,0,*43
1534424473.01,34824,21.5,74428.5,11.01,5.99,5.77,0,*45
1534424474.22,34825,21.5,74430.8,11.01,5.73,5.45,0,*41
1534424475.43,34826,21.5,74428.8,11.01,6.03,5.77,0,*47
1534424476.65,34827,21.5,74428.8,11.01,5.85,5.67,0,*4A
1534424477.89,34828,21.5,74426.3,11.03,5.81,5.59,0,*4E
1534424479.09,34829,21.5,74424.0,11.01,5.77,5.63,0,*4D
1534424480.32,34830,21.5,74426.5,11.01,5.55,5.27,0,*45
1534424481.53,34831,21.5,74428.3,11.01,5.33,5.05,0,*44
1534424482.74,34832,21.5,74430.8,11.01,5.73,5.45,0,*47
1534424484.01,34833,21.5,74430.5,11.03,5.81,5.55,0,*48
1534424485.25,34834,21.5,74430.5,10.99,5.51,5.05,0,*45
1534424486.48,34835,21.5,74428.8,10.99,5.07,4.75,0,*41
1534424487.71,34836,21.5,74430.5,10.99,5.07,4.75,0,*42
1534424488.94,34837,21.5,74426.5,11.01,5.27,4.97,0,*4D
1534424490.14,34838,21.5,74428.3,10.97,5.37,5.01,0,*43
1534424491.37,34839,21.5,74430.3,10.97,5.81,5.51,0,*4A
1534424492.59,34840,21.5,74424.5,10.99,6.13,5.95,0,*4A
1534424493.83,34841,21.5,74426.5,10.99,6.35,6.11,0,*40
1534424495.05,34842,21.5,74426.5,10.97,6.17,5.85,0,*43
1534424496.28,34843,21.5,74426.8,10.99,6.03,5.73,0,*40
1534424497.48,34844,21.5,74430.8,10.99,5.67,5.33,0,*42
1534424498.67,34845,21.5,74430.0,11.01,5.67,5.33,0,*43
1534424499.9,34846,21.5,74426.8,10.99,5.55,5.19,0,*49
1534424501.11,34847,21.5,74430.3,11.01,5.29,4.93,0,*40
1534424502.33,34848,21.5,74428.5,10.99,5.41,4.97,0,*45
1534424503.55,34849,21.5,74426.8,10.99,5.51,5.15,0,*4E
1534424504.78,34850,21.5,74428.3,10.99,5.55,5.07,0,*41
1534424506.0,34851,21.5,74426.8,10.99,5.73,5.45,0,*42
1534424507.21,34852,21.5,74430.3,10.97,5.93,5.59,0,*4C
1534424508.44,34853,21.5,74426.8,10.95,5.81,5.45,0,*41
1534424509.64,34854,21.5,74428.3,10.97,6.21,5.73,0,*48
1534424510.87,34855,21.5,74430.3,10.95,6.57,6.25,0,*4A
1534424512.07,34856,21.5,74430.3,10.97,6.51,6.07,0,*4D
1534424513.3,34857,21.5,74426.8,10.99,6.47,6.11,0,*42
1534424514.52,34858,21.5,74428.5,11.01,6.65,6.21,0,*4E
1534424515.76,34859,21.5,74430.0,11.01,6.35,5.89,0,*4B
1534424516.95,34860,21.5,74430.8,11.01,6.33,5.95,0,*4A
1534424518.17,34861,21.5,74426.8,11.01,6.25,5.73,0,*44
1534424519.39,34862,21.5,74430.8,11.03,6.29,5.71,0,*4B
1534424520.64,34863,21.5,74424.8,11.03,6.17,5.67,0,*40
1534424521.91,34864,21.5,74430.0,11.03,6.35,5.77,0,*46
1534424523.17,34865,21.5,74430.5,11.03,6.39,5.89,0,*4A
1534424524.42,34866,21.5,74428.5,11.03,6.47,6.03,0,*41
1534424525.67,34867,21.5,74430.8,11.03,6.47,6.03,0,*40
1534424526.91,34868,21.5,74428.5,11.05,6.39,5.93,0,*4A
1534424528.16,34869,21.5,74424.8,11.05,6.39,5.93,0,*4B
1534424529.4,34870,21.5,74428.3,11.07,6.21,5.81,0,*4B
1534424530.65,34871,21.5,74428.5,11.07,6.29,5.85,0,*46
1534424531.88,34872,21.5,74426.8,11.05,6.51,6.03,0,*45
1534424533.1,34873,21.5,74430.0,11.05,6.39,6.03,0,*4A
1534424534.35,34874,21.5,74426.3,11.07,6.21,5.85,0,*4B
1534424535.59,34875,21.5,74426.0,11.11,6.47,6.07,0,*44
1534424536.85,34876,21.5,74430.0,11.07,6.53,6.17,0,*44
1534424538.08,34877,21.5,74428.5,11.07,6.21,5.71,0,*43
1534424539.29,34878,21.5,74430.0,11.07,6.11,5.63,0,*4C
1534424540.56,34879,21.5,74426.5,11.07,6.17,5.73,0,*4A
1534424541.8,34880,21.5,74430.3,11.07,6.43,5.95,0,*45
1534424543.05,34881,21.5,74428.5,11.11,6.47,5.99,0,*4B
1534424544.3,34882,21.5,74424.5,11.11,6.47,5.99,0,*48
1534424545.54,34883,21.5,74426.8,11.11,6.25,5.77,0,*4D
1534424546.78,34884,21.5,74426.8,11.11,5.89,5.37,0,*4B
1534424548.01,34885,21.5,74426.5,11.11,5.63,5.07,0,*4D
1534424549.22,34886,21.5,74428.5,11.11,5.95,5.29,0,*4B
1534424550.46,34887,21.5,74426.8,11.11,5.89,5.29,0,*47
1534424551.68,34888,21.44,74426.3,11.07,5.95,5.41,0,*4C
1534424552.9,34889,21.5,74424.3,11.07,5.95,5.59,0,*44
1534424554.15,34890,21.5,74428.8,11.07,6.33,5.81,0,*46
1534424555.4,34891,21.5,74426.0,11.07,6.43,5.95,0,*45
1534424556.64,34892,21.5,74428.5,11.07,6.29,5.81,0,*4F
1534424557.89,34893,21.5,74428.3,11.07,5.85,5.23,0,*43
1534424559.16,34894,21.5,74426.5,11.07,6.43,5.85,0,*41
1534424560.4,34895,21.5,74424.8,11.07,5.85,5.33,0,*44
1534424561.67,34896,21.5,74426.5,11.11,6.43,5.93,0,*43
1534424562.91,34897,21.5,74426.0,11.07,6.61,6.11,0,*4C
1534424564.15,34898,21.5,74430.3,11.11,6.53,6.07,0,*42
1534424565.42,34899,21.5,74430.5,11.07,6.73,6.17,0,*47
1534424566.65,34900,21.5,74426.0,11.11,6.53,5.95,0,*4A
1534424567.86,34901,21.5,74428.8,11.13,6.53,6.07,0,*41
1534424569.07,34902,21.5,74430.3,11.13,6.69,6.21,0,*4F
1534424570.31,34903,21.5,74426.0,11.13,6.87,6.35,0,*4B
1534424571.56,34904,21.5,74430.0,11.15,6.93,6.51,0,*4D
1534424572.77,34905,21.5,74426.8,11.13,7.01,6.47,0,*47
1534424574.04,34906,21.5,74426.3,11.15,6.91,6.47,0,*4A
1534424575.27,34907,21.5,74426.0,11.17,6.91,6.39,0,*40
1534424576.51,34908,21.5,74424.3,11.19,6.53,6.07,0,*42
1534424577.75,34909,21.5,74428.3,11.17,6.61,6.17,0,*4D
1534424579.0,34910,21.5,74430.0,11.19,6.61,6.03,0,*4E
1534424580.21,34911,21.5,74430.0,11.19,6.75,6.21,0,*4A
1534424581.43,34912,21.5,74428.8,11.19,6.75,6.21,0,*49
1534424582.67,34913,21.5,74430.0,11.19,6.65,6.21,0,*49
1534424583.86,34914,21.5,74428.5,11.21,6.79,6.25,0,*4C
1534424585.12,34915,21.5,74428.3,11.23,6.69,6.13,0,*4B
1534424586.37,34916,21.5,74430.5,11.21,6.47,5.89,0,*46
1534424587.64,34917,21.5,74428.5,11.23,6.51,5.93,0,*49
1534424588.85,34918,21.5,74430.8,11.23,6.83,6.29,0,*4B
1534424590.06,34919,21.5,74426.8,11.25,6.61,6.11,0,*4B
1534424591.3,34920,21.5,74426.8,11.23,6.61,6.11,0,*47
1534424592.48,34921,21.5,74428.3,11.25,6.79,6.29,0,*42
1534424593.66,34922,21.5,74428.0,11.25,6.79,6.29,0,*41
1534424594.85,34923,21.5,74426.5,11.25,6.79,6.25,0,*4C
1534424596.03,34924,21.5,74428.8,11.25,6.83,6.29,0,*42
1534424597.24,34925,21.5,74428.3,11.25,6.61,6.11,0,*44
1534424598.46,34926,21.5,74426.3,11.25,6.47,5.99,0,*40
1534424599.7,34927,21.5,74424.5,11.27,6.61,6.03,0,*47
1534424600.94,34928,21.5,74426.5,11.27,6.25,5.73,0,*4C
1534424602.13,34929,21.5,74426.0,11.25,6.21,5.67,0,*4E
1534424603.38,34930,21.5,74426.5,11.27,6.13,5.63,0,*41
1534424604.56,34931,21.5,74424.3,11.25,6.11,5.59,0,*49
1534424605.81,34932,21.5,74422.8,11.27,6.51,5.95,0,*4C
1534424607.03,34933,21.5,74424.3,11.25,6.29,5.81,0,*45
1534424608.24,34934,21.5,74424.3,11.25,6.13,5.59,0,*4E
1534424609.46,34935,21.5,74424.8,11.25,6.29,5.81,0,*43
1534424610.67,34936,21.5,74426.0,11.25,6.13,5.71,0,*46
1534424611.92,34937,21.5,74424.8,11.27,6.25,5.81,0,*4F
1534424613.18,34938,21.44,74424.5,11.27,6.65,6.17,0,*48
1534424614.41,34939,21.5,74428.3,11.25,6.57,6.13,0,*4E
1534424615.65,34940,21.5,74424.0,11.27,6.53,6.07,0,*43
1534424616.86,34941,21.5,74428.3,11.25,6.03,5.51,0,*45
1534424618.08,34942,21.5,74430.8,11.25,6.13,5.59,0,*4F
1534424619.3,34943,21.5,74424.5,11.25,5.89,5.33,0,*42
1534424620.53,34944,21.5,74426.0,11.27,5.85,5.37,0,*4F
1534424621.75,34945,21.5,74426.5,11.25,6.13,5.71,0,*42
1534424622.98,34946,21.5,74424.8,11.25,6.47,5.93,0,*4C
1534424624.2,34947,21.5,74426.3,11.25,6.57,6.03,0,*46
1534424625.44,34948,21.5,74426.5,11.27,6.61,5.99,0,*4E
1534424626.67,34949,21.5,74426.5,11.27,6.61,6.07,0,*4B
1534424627.88,34950,21.5,74426.3,11.27,6.75,6.29,0,*4A
1534424629.12,34951,21.5,74428.3,11.27,6.97,6.53,0,*4A
1534424630.36,34952,21.5,74430.3,11.27,6.97,6.51,0,*4B
1534424631.6,34953,21.5,74424.8,11.29,6.87,6.39,0,*4B
1534424632.83,34954,21.5,74422.5,11.31,7.09,6.53,0,*4E
1534424634.04,34955,21.5,74426.0,11.29,6.73,6.29,0,*47
1534424635.26,34956,21.5,74426.0,11.29,6.29,5.81,0,*4A
1534424636.45,34957,21.5,74426.0,11.29,5.95,5.37,0,*42
1534424637.66,34958,21.5,74424.8,11.29,6.07,5.55,0,*41
1534424638.91,34959,21.5,74424.3,11.31,6.47,5.99,0,*4D
1534424640.13,34960,21.5,74426.3,11.29,6.61,6.03,0,*4A
1534424641.39,34961,21.5,74426.3,11.31,6.69,6.17,0,*4F
1534424642.61,34962,21.5,74424.3,11.31,6.11,5.67,0,*47
1534424643.83,34963,21.5,74424.8,11.29,5.93,5.33,0,*47
1534424645.02,34964,21.5,74424.8,11.29,5.95,5.45,0,*47
1534424646.21,34965,21.5,74426.5,11.29,6.03,5.49,0,*46
1534424647.4,34966,21.5,74424.0,11.29,5.95,5.49,0,*49
1534424648.61,34967,21.5,74424.8,11.29,6.07,5.73,0,*49
1534424649.83,34968,21.5,74424.3,11.25,5.73,5.23,0,*4F
1534424651.06,34969,21.5,74424.3,11.27,5.71,5.27,0,*4A
1534424652.25,34970,21.5,74426.0,11.25,5.59,5.23,0,*4E
1534424653.44,34971,21.5,74426.5,11.25,5.99,5.71,0,*44
1534424654.64,34972,21.5,74426.3,11.25,6.29,5.99,0,*49
1534424655.85,34973,21.5,74426.3,11.25,6.51,6.21,0,*47
1534424657.05,34974,21.5,74426.3,11.25,6.25,5.99,0,*43
1534424658.27,34975,21.5,74426.8,11.27,6.03,5.71,0,*42
1534424659.47,34976,21.5,74426.5,11.25,6.03,5.71,0,*43
1534424660.68,34977,21.5,74424.8,11.25,6.21,5.81,0,*4D
1534424661.88,34978,21.5,74424.8,11.25,6.29,5.99,0,*43
1534424663.11,34979,21.5,74426.0,11.27,6.39,6.07,0,*45
1534424664.35,34980,21.5,74426.0,11.27,6.53,6.25,0,*4F
1534424665.61,34981,21.5,74424.0,11.27,6.65,6.39,0,*46
1534424666.85,34982,21.5,74426.8,11.27,6.75,6.51,0,*4A
1534424668.09,34983,21.5,74424.3,11.25,6.73,6.47,0,*48
1534424669.34,34984,21.5,74426.8,11.27,6.87,6.61,0,*42
1534424670.55,34985,21.5,74424.8,11.29,6.83,6.53,0,*48
1534424671.79,34986,21.5,74428.8,11.31,6.75,6.47,0,*4E
1534424673.03,34987,21.5,74422.5,11.29,6.73,6.43,0,*44
1534424674.27,34988,21.5,74424.3,11.31,7.09,6.69,0,*46
1534424675.52,34989,21.44,74422.8,11.31,6.91,6.69,0,*47
1534424676.76,34990,21.5,74424.5,11.31,6.97,6.69,0,*49
1534424677.97,34991,21.5,74426.5,11.35,6.93,6.73,0,*43
1534424679.17,34992,21.5,74426.5,11.35,7.01,6.73,0,*4A
1534424680.41,34993,21.5,74424.8,11.35,6.91,6.61,0,*40
1534424681.67,34994,21.5,74424.8,11.37,6.91,6.61,0,*45
1534424682.9,34995,21.5,74424.8,11.37,6.93,6.61,0,*46
1534424684.14,34996,21.5,74428.3,11.37,7.15,6.83,0,*46
1534424685.35,34997,21.5,74426.5,11.41,7.09,6.75,0,*42
1534424686.56,34998,21.5,74424.5,11.39,6.97,6.65,0,*45
1534424687.79,34999,21.5,74426.0,11.41,7.15,6.83,0,*48
1534424689.0,35000,21.5,74426.5,11.43,7.19,6.79,0,*4B
1534424690.21,35001,21.5,74424.0,11.43,7.23,6.79,0,*43
1534424691.43,35002,21.5,74426.5,11.43,7.11,6.69,0,*40
1534424692.67,35003,21.5,74426.0,11.45,7.27,6.83,0,*46
1534424693.87,35004,21.5,74424.8,11.45,7.05,6.79,0,*44
1534424695.09,35005,21.5,74428.3,11.45,7.01,6.61,0,*48
1534424696.32,35006,21.5,74426.8,11.45,7.15,6.79,0,*47
1534424697.51,35007,21.5,74426.5,11.47,7.29,6.93,0,*4F
1534424698.71,35008,21.5,74426.0,11.49,7.41,6.93,0,*40
1534424699.95,35009,21.5,74424.5,11.49,7.29,6.87,0,*4A
1534424701.19,35010,21.5,74426.0,11.47,7.27,6.91,0,*45
1534424702.39,35011,21.5,74426.5,11.49,7.41,6.97,0,*4C
1534424703.59,35012,21.5,74426.0,11.53,7.37,7.01,0,*4B
1534424704.78,35013,21.5,74424.5,11.51,7.33,6.97,0,*42
1534424705.99,35014,21.5,74422.8,11.51,7.29,6.91,0,*48
1534424707.2,35015,21.5,74426.0,11.51,6.97,6.57,0,*47
1534424708.43,35016,21.5,74428.8,11.51,6.53,6.17,0,*48
1534424709.64,35017,21.5,74426.5,11.51,6.79,6.51,0,*43
1534424710.87,35018,21.5,74426.8,11.53,7.01,6.69,0,*4B
1534424712.12,35019,21.5,74426.8,11.53,6.91,6.57,0,*4F
1534424713.38,35020,21.5,74430.5,11.53,6.65,6.39,0,*46
1534424714.62,35021,21.5,74424.3,11.53,6.51,6.29,0,*41
1534424715.87,35022,21.5,74426.0,11.53,6.87,6.53,0,*44
1534424717.12,35023,21.5,74426.5,11.53,6.91,6.57,0,*46
1534424718.35,35024,21.5,74426.0,11.53,6.53,6.29,0,*46
1534424719.58,35025,21.5,74428.8,11.53,6.39,6.07,0,*47
1534424720.84,35026,21.5,74426.5,11.57,6.61,6.35,0,*4C
1534424722.06,35027,21.5,74426.0,11.57,6.83,6.57,0,*45
1534424723.28,35028,21.5,74426.8,11.57,6.83,6.53,0,*4E
1534424724.52,35029,21.5,74428.3,11.57,6.79,6.47,0,*4F
1534424725.74,35030,21.5,74426.5,11.57,7.05,6.73,0,*4A
1534424726.94,35031,21.5,74424.5,11.57,7.01,6.79,0,*45
1534424728.15,35032,21.5,74424.0,11.59,6.75,6.47,0,*47
1534424729.36,35033,21.5,74426.5,11.59,6.75,6.51,0,*41
1534424730.57,35034,21.5,74424.3,11.59,6.75,6.47,0,*41
1534424731.77,35035,21.5,74426.8,11.59,6.75,6.39,0,*49
1534424732.98,35036,21.5,74426.5,11.59,6.97,6.73,0,*48
1534424734.19,35037,21.5,74426.5,11.61,6.97,6.75,0,*44
1534424735.42,35038,21.5,74428.0,11.61,7.05,6.73,0,*47
1534424736.67,35039,21.5,74424.0,11.61,6.87,6.65,0,*4A
1534424737.93,35040,21.5,74426.0,11.61,6.61,6.39,0,*45
1534424739.14,35041,21.5,74426.5,11.59,6.57,6.29,0,*4B
1534424740.37,35042,21.5,74426.5,11.61,6.83,6.51,0,*45
1534424741.6,35043,21.5,74426.8,11.61,6.61,6.29,0,*47
1534424742.82,35044,21.5,74426.5,11.63,6.75,6.43,0,*4B
1534424744.07,35045,21.5,74424.8,11.61,6.87,6.57,0,*40
1534424745.33,35046,21.5,74424.0,11.61,6.65,6.47,0,*4E
1534424746.57,35047,21.5,74424.0,11.61,6.97,6.73,0,*45
1534424747.77,35048,21.5,74424.3,11.63,7.01,6.69,0,*4D
1534424748.97,35049,21.5,74426.0,11.65,6.79,6.65,0,*48
1534424750.23,35050,21.5,74426.3,11.61,7.15,6.87,0,*43
1534424751.43,35051,21.5,74426.5,11.63,7.01,6.87,0,*45
1534424752.64,35052,21.5,74426.8,11.65,6.97,6.65,0,*42
1534424753.87,35053,21.5,74424.5,11.65,6.91,6.65,0,*45
1534424755.08,35054,21.5,74426.8,11.65,6.75,6.51,0,*4F
1534424756.32,35055,21.5,74426.0,11.67,7.05,6.91,0,*46
1534424757.55,35056,21.5,74424.0,11.65,7.11,6.87,0,*45
1534424758.74,35057,21.5,74426.5,11.65,7.01,6.69,0,*45
1534424760.0,35058,21.5,74428.0,11.67,7.11,6.87,0,*49
1534424761.18,35059,21.5,74424.3,11.65,7.01,6.75,0,*46
1534424762.41,35060,21.5,74426.0,11.67,6.93,6.73,0,*42
1534424763.61,35061,21.5,74424.0,11.67,7.05,6.79,0,*47
1534424764.83,35062,21.5,74426.0,11.67,7.01,6.73,0,*4A
1534424766.06,35063,21.5,74424.3,11.67,6.83,6.57,0,*46
1534424767.29,35064,21.5,74426.0,11.67,6.79,6.53,0,*40
1534424768.52,35065,21.5,74424.5,11.67,6.93,6.65,0,*40
1534424769.73,35066,21.5,74426.0,11.69,7.15,6.75,0,*43
1534424770.93,35067,21.5,74426.0,11.69,6.75,6.57,0,*45
1534424772.16,35068,21.5,74426.5,11.69,6.61,6.39,0,*47
1534424773.37,35069,21.5,74424.5,11.69,6.83,6.57,0,*42
1534424774.6,35070,21.5,74428.8,11.69,6.73,6.57,0,*45
1534424775.83,35071,21.5,74426.3,11.71,6.97,6.69,0,*4A
1534424777.09,35072,21.5,74424.3,11.71,6.57,6.39,0,*40
1534424778.31,35073,21.5,74426.5,11.69,6.47,6.29,0,*48
1534424779.55,35074,21.5,74426.0,11.69,6.35,6.13,0,*43
1534424780.74,35075,21.5,74426.0,11.69,6.29,5.99,0,*4E
1534424781.98,35076,21.5,74426.8,11.67,5.85,5.67,0,*47
1534424783.25,35077,21.5,74424.3,11.67,6.47,6.35,0,*4F
1534424784.48,35078,21.5,74426.0,11.65,6.61,6.53,0,*46
1534424785.7,35079,21.5,74424.8,11.67,6.79,6.57,0,*48
1534424786.96,35080,21.5,74426.5,11.67,6.53,6.35,0,*42
1534424788.22,35081,21.5,74426.3,11.67,6.57,6.35,0,*47
1534424789.46,35082,21.5,74424.3,11.67,6.33,6.13,0,*42
1534424790.67,35083,21.5,74426.3,11.65,6.39,6.11,0,*49
1534424791.9,35084,21.5,74426.5,11.67,6.53,6.33,0,*40
1534424793.14,35085,21.5,74424.8,11.65,6.17,5.93,0,*4A
1534424794.35,35086,21.5,74426.5,11.65,6.43,6.29,0,*4A
1534424795.58,35087,21.5,74426.5,11.65,6.53,6.39,0,*4B
1534424796.77,35088,21.5,74428.0,11.65,6.75,6.53,0,*4C
1534424797.98,35089,21.5,74424.3,11.65,6.97,6.69,0,*48
1534424799.21,35090,21.5,74428.0,11.65,6.69,6.43,0,*49
1534424800.48,35091,21.5,74424.5,11.67,6.73,6.47,0,*45
1534424801.71,35092,21.5,74426.5,11.67,6.93,6.69,0,*44
1534424802.93,35093,21.5,74424.8,11.65,6.91,6.69,0,*45
1534424804.16,35094,21.5,74426.5,11.67,6.83,6.65,0,*4F
1534424805.37,35095,21.5,74426.8,11.67,6.93,6.79,0,*42
1534424806.6,35096,21.5,74426.5,11.67,6.83,6.57,0,*4C
1534424807.83,35097,21.5,74424.5,11.69,6.87,6.69,0,*4A
1534424809.03,35098,21.5,74424.5,11.69,6.75,6.57,0,*45
1534424810.26,35099,21.5,74426.0,11.69,6.61,6.39,0,*49
1534424811.52,35100,21.5,74424.5,11.71,6.61,6.39,0,*41
1534424812.76,35101,21.5,74426.0,11.69,6.87,6.73,0,*4F
1534424814.0,35102,21.5,74424.3,11.69,6.73,6.47,0,*40
1534424815.25,35103,21.5,74426.3,11.69,6.51,6.35,0,*44
1534424816.46,35104,21.5,74424.3,11.69,6.47,6.29,0,*49
1534424817.67,35105,21.5,74426.0,11.69,6.17,5.99,0,*45
1534424818.88,35106,21.5,74424.8,11.65,6.39,6.21,0,*46
1534424820.12,35107,21.5,74422.8,11.67,6.43,6.21,0,*48
1534424821.33,35108,21.5,74424.8,11.65,6.39,6.21,0,*48
1534424822.57,35109,21.5,74426.5,11.65,6.35,6.17,0,*40
1534424823.81,35110,21.5,74424.3,11.65,6.65,6.43,0,*4C
1534424825.06,35111,21.5,74424.0,11.67,6.69,6.39,0,*4E
1534424826.3,35112,21.5,74426.0,11.67,6.35,6.21,0,*4D
1534424827.54,35113,21.5,74420.8,11.65,6.17,5.93,0,*44
1534424828.73,35114,21.5,74424.0,11.65,6.29,6.11,0,*47
1534424829.93,35115,21.5,74424.5,11.65,6.39,6.29,0,*4C
1534424831.14,35116,21.5,74424.8,11.65,6.53,6.33,0,*48
1534424832.35,35117,21.5,74424.3,11.65,6.75,6.65,0,*4E
1534424833.55,35118,21.5,74420.5,11.67,6.83,6.79,0,*47
1534424834.82,35119,21.5,74426.0,11.67,6.65,6.47,0,*43
1534424836.05,35120,21.5,74428.5,11.65,6.61,6.43,0,*4B
1534424837.29,35121,21.5,74426.5,11.65,6.65,6.51,0,*4D
1534424838.52,35122,21.5,74426.8,11.65,6.53,6.39,0,*45
1534424839.71,35123,21.5,74424.3,11.65,6.21,6.07,0,*4C
1534424840.91,35124,21.5,74426.3,11.65,6.07,5.81,0,*42
1534424842.12,35125,21.5,74426.0,11.65,5.81,5.71,0,*41
1534424843.33,35126,21.5,74424.3,11.65,5.93,5.63,0,*42
1534424844.57,35127,21.5,74426.5,11.61,5.81,5.59,0,*4D
1534424845.81,35128,21.5,74422.3,11.61,5.81,5.59,0,*42
1534424847.01,35129,21.5,74424.5,11.59,6.07,5.77,0,*49
1534424848.25,35130,21.5,74422.5,11.61,6.29,6.13,0,*47
1534424849.48,35131,21.5,74424.5,11.61,6.39,6.29,0,*4E
1534424850.72,35132,21.5,74424.3,11.61,6.47,6.29,0,*44
1534424851.95,35133,21.5,74424.8,11.59,6.65,6.39,0,*4F
1534424853.19,35134,21.5,74424.8,11.59,6.65,6.35,0,*44
1534424854.42,35135,21.5,74424.8,11.59,6.39,6.13,0,*48
1534424855.63,35136,21.5,74424.3,11.59,6.39,6.25,0,*4E
1534424856.86,35137,21.5,74426.0,11.59,6.57,6.39,0,*4A
1534424858.11,35138,21.5,74426.5,11.57,6.69,6.43,0,*4B
1534424859.35,35139,21.5,74426.5,11.59,6.51,6.35,0,*4E
1534424860.62,35140,21.5,74422.5,11.61,6.51,6.39,0,*47
1534424861.88,35141,21.5,74424.5,11.61,6.65,6.51,0,*4F
1534424863.09,35142,21.5,74426.8,11.59,6.13,5.95,0,*4D
1534424864.33,35143,21.5,74426.3,11.59,6.17,5.89,0,*45
1534424865.56,35144,21.5,74426.3,11.59,6.13,5.89,0,*46
1534424866.83,35145,21.5,74426.3,11.61,6.51,6.39,0,*42
1534424868.05,35146,21.5,74428.0,11.59,6.87,6.73,0,*4F
1534424869.23,35147,21.5,74424.8,11.59,7.09,6.93,0,*47
1534424870.42,35148,21.5,74426.3,11.59,7.09,6.93,0,*48
1534424871.65,35149,21.5,74426.8,11.61,7.05,6.87,0,*4B
1534424872.85,35150,21.5,74426.3,11.63,6.75,6.61,0,*4F
1534424874.09,35151,21.5,74426.8,11.61,6.75,6.51,0,*4F
1534424875.32,35152,21.5,74424.5,11.61,6.47,6.25,0,*4E
1534424876.58,35153,21.5,74424.3,11.61,6.39,6.13,0,*43
1534424877.85,35154,21.5,74426.3,11.61,6.35,6.17,0,*4C
1534424879.08,35155,21.5,74422.8,11.61,6.39,6.25,0,*40
1534424880.35,35156,21.5,74424.0,11.61,6.65,6.47,0,*4E
1534424881.55,35157,21.5,74424.0,11.59,6.39,6.29,0,*45
1534424882.74,35158,21.5,74424.3,11.59,6.25,6.07,0,*4B
1534424883.93,35159,21.5,74424.8,11.59,6.29,6.07,0,*46
1534424885.17,35160,21.5,74424.5,11.61,5.93,5.67,0,*40
1534424886.42,35161,21.5,74426.0,11.57,5.77,5.51,0,*4B
1534424887.65,35162,21.5,74424.5,11.57,5.89,5.63,0,*48
1534424888.9,35163,21.5,74424.8,11.57,5.77,5.55,0,*4D
1534424890.12,35164,21.5,74422.8,11.51,5.85,5.63,0,*44
1534424891.35,35165,21.5,74420.0,11.53,5.73,5.49,0,*46
1534424892.56,35166,21.5,74424.3,11.51,5.89,5.63,0,*4A
1534424893.78,35167,21.5,74422.5,11.51,5.89,5.63,0,*4B
1534424895.01,35168,21.5,74422.3,11.51,5.73,5.51,0,*40
1534424896.2,35169,21.5,74424.3,11.51,5.99,5.71,0,*47
1534424897.44,35170,21.5,74424.5,11.49,5.93,5.67,0,*4B
1534424898.71,35171,21.5,74426.3,11.49,6.35,6.17,0,*41
1534424899.92,35172,21.5,74426.3,11.51,6.17,5.99,0,*4E
1534424901.16,35173,21.5,74424.8,11.53,5.99,5.89,0,*49
1534424902.39,35174,21.5,74420.5,11.49,6.17,6.03,0,*41
1534424903.61,35175,21.5,74426.8,11.47,5.93,5.63,0,*44
1534424904.83,35176,21.5,74422.8,11.47,6.35,6.21,0,*4D
1534424906.03,35177,21.5,74426.3,11.49,6.07,5.95,0,*4F
1534424907.3,35178,21.5,74424.3,11.49,6.51,6.39,0,*46
1534424908.52,35179,21.5,74426.3,11.51,6.51,6.33,0,*44
1534424909.75,35180,21.5,74426.3,11.51,6.39,6.17,0,*4A
1534424910.96,35181,21.5,74426.8,11.51,6.39,6.21,0,*4E
1534424912.15,35182,21.5,74426.3,11.51,6.21,6.07,0,*40
1534424913.39,35183,21.5,74426.3,11.49,6.17,6.03,0,*49
1534424914.65,35184,21.5,74420.0,11.49,6.13,5.85,0,*47
1534424915.88,35185,21.5,74426.5,11.49,5.81,5.59,0,*4F
1534424917.09,35186,21.5,74424.8,11.51,6.07,5.89,0,*45
1534424918.29,35187,21.5,74426.8,11.49,5.45,5.15,0,*4D
1534424919.52,35188,21.5,74424.3,11.49,5.95,5.77,0,*4B
1534424920.71,35189,21.5,74422.3,11.47,5.45,5.23,0,*48
1534424921.92,35190,21.5,74426.5,11.47,5.07,4.93,0,*4C
1534424923.13,35191,21.5,74426.8,11.43,5.27,5.07,0,*47
1534424924.32,35192,21.5,74424.0,11.43,5.95,5.71,0,*4C
1534424925.53,35193,21.5,74424.8,11.43,5.99,5.77,0,*47
1534424926.74,35194,21.5,74426.8,11.43,6.17,5.99,0,*45
1534424927.94,35195,21.5,74424.3,11.43,6.29,6.11,0,*4A
1534424929.17,35196,21.5,74426.5,11.43,6.17,5.89,0,*46
1534424930.41,35197,21.5,74422.5,11.41,5.95,5.81,0,*44
1534424931.64,35198,21.5,74424.8,11.41,6.13,6.07,0,*4B
1534424932.87,35199,21.5,74426.0,11.41,6.07,5.93,0,*41